[ hide orbit diagram ]
For accurate long-term ephemerides, please instead use our Horizons system.This orbit viewer was implemented using two-body methods, and hence should not be used for determining accurate long-term trajectories (over several years or decades) or planetary encounter circumstances.
Orbital Elements at Epoch 2459200.5 (2020-Dec-17.0) TDB
Reference: JPL 20 (heliocentric ecliptic J2000)
Element | Value | Uncertainty (1-sigma) | Units |
e | .189596587725338 | 4.6433e-08 | |
a | 2.194136949178758 | 6.4467e-09 | au |
q | 1.778136070612382 | 1.0133e-07 | au |
i | 4.580346392815603 | 4.2928e-06 | deg |
node | 270.4846864615936 | 5.5055e-05 | deg |
peri | 105.1323772648975 | 5.5897e-05 | deg |
M | 247.974712933159 | 1.0112e-05 | deg |
tp | 2459569.909098681774 (2021-Dec-21.40909868) | 3.3821e-05 | TDB |
period | 1187.118364143003 3.25 | 5.2319e-06 1.432e-08 | d yr |
n | .3032553542037816 | 1.3365e-09 | deg/d |
Q | 2.610137827745134 | 7.669e-09 | au |
|
| | Orbit Determination Parameters
Additional Information
|
[ show covariance matrix ]
Physical Parameter Table
Parameter |
Symbol |
Value |
Units |
Sigma |
Reference |
Notes |
absolute magnitude |
H |
16.13 |
|
n/a |
E2021B55 |
|
|
103608 (2000 CR19) Discovered 2000-Feb-02 by LINEAR at Socorro |
Reference: 20051019/Numbers.arc | Last Updated: 2005-10-26 |
|
|